Messwerte Puerto Plata

Temperatur

Temperatur
°C
1573653600 10.00 10.00 30
1573657200 11.00 11.00 30
1573660800 12.00 12.00 30
1573664400 13.00 13.00 31
1573668000 14.00 14.00 31
1573671600 15.00 15.00 31
1573675200 16.00 16.00 31
1573678800 17.00 17.00 30
1573682400 18.00 18.00 29
1573686000 19.00 19.00 28
1573689600 20.00 20.00 27
1573693200 21.00 21.00 27
1573696800 22.00 22.00 25
1573700400 23.00 23.00 24
1573704000 0.00 0.00
1573707600 1.00 1.00
1573711200 2.00 2.00 23
1573714800 3.00 3.00
1573718400 4.00 4.00
1573722000 5.00 5.00 22
1573725600 6.00 6.00
1573729200 7.00 7.00 22
1573732800 8.00 8.00 22
1573736400 9.00 9.00 27

Aktuellste Messwerte

Wettercharakter
Wetter: recht sonnig
Temperatur
27 °C
Feuchtigkeit
85 %
Wind
0 km/h, -
Luftdruck
1015 hPa
Messzeit: 14. November 2019, 9.00Datenquelle: METAR

Weitere Messstationen in der Nähe

Messstation Temperatur Entfernung
Santiago de los Caballeros 25 °C 37 km
Arroyo Barril 27 °C 130 km
Dr Joaquin Balaguer Intl 25 °C 144 km
Boca Chica 26 °C 173 km
Santa Cruz de Barahona 26 °C 182 km
La Romana 27 °C 229 km
Punta Cana 28 °C 264 km

Wind

Windrichtung Böen Mittelwind
° km/h km/h
1573653600 10.00 9.00 - 10.00 350° 10
1573657200 11.00 10.00 - 11.00 90° 10
1573660800 12.00 11.00 - 12.00 30° 15
1573664400 13.00 12.00 - 13.00 60° 20
1573668000 14.00 13.00 - 14.00 80° 25
1573671600 15.00 14.00 - 15.00 60° 30
1573675200 16.00 15.00 - 16.00 60° 30
1573678800 17.00 16.00 - 17.00 60° 20
1573682400 18.00 17.00 - 18.00 0
1573686000 19.00 18.00 - 19.00 0
1573689600 20.00 19.00 - 20.00 0
1573693200 21.00 20.00 - 21.00 0
1573696800 22.00 21.00 - 22.00 0
1573700400 23.00 22.00 - 23.00 0
1573704000 0.00 23.00 - 0.00
1573707600 1.00 0.00 - 1.00
1573711200 2.00 1.00 - 2.00 0
1573714800 3.00 2.00 - 3.00
1573718400 4.00 3.00 - 4.00
1573722000 5.00 4.00 - 5.00 0
1573725600 6.00 5.00 - 6.00
1573729200 7.00 6.00 - 7.00 0
1573732800 8.00 7.00 - 8.00 0
1573736400 9.00 8.00 - 9.00 0

Ihre Wetterstation

Fehlt Ihre Wetterstation auf unserem Portal?

Schreiben Sie an network@meteonews.ch

Klima

Wann ist es am wärmsten? Wann regnet es am wenigsten? Unsere Klimadaten geben Auskunft.